Location: Unspecified
(35.6961°N, 0.0000°E)
Time: 05:51:36
(UTC+00:00)

Vanguard 3 - Pass Details

Date: 28 May 2019
Orbit: 508 x 3263 km, 33.3° (Epoch: 17 June)

Event Time Altitude Azimuth Distance (km) Brightness Sun altitude
Rises 18:44:45 0° 231° (SW) 2,697 10.2 3.4°
Reaches altitude 10° 18:46:48 10° 221° (SW) 1,924 9.3 3.0°
Maximum altitude 18:50:44 36° 153° (SSE) 1,157 7.6 2.3°
Drops below altitude 10° 18:56:37 10° 88° (E) 2,892 9.4 1.2°
Sets 19:00:22 0° 82° (E) 4,303 10.3 0.5°
